Погода в Виана-ду-Каштелу

Португалия     41°49′02″N   8°51′45″W
темп.,
°C
ветер,
м/с
пор.,
м/с
влажн.,
%
обл.,
%
осадки,
мм/ч
давл.,
гПа
погр.,
м
6 марта, сб
сб600:00+11всв23771 0.0 101928
03:00+9всв22790 0.0 101924
06:00+8всв22790 0.0 102025
09:00+12в12691 0.0 102198
12:00+18з11501 0.0 1021709
15:00+16зсз325897 0.0 1019515
18:00+12ссз227971 0.0 101961
21:00+10всв12850 0.0 102022
7 марта, вс
вс700:00+9в12890 0.0 102024
03:00+8всв11890 0.0 101927
06:00+7св11910 0.0 101934
09:00+12в11730 0.0 1019171
12:00+15зсз22640 0.0 1019731
15:00+15сз33640 0.0 1017620
18:00+12ссз35760 0.0 1017215
21:00+8ссв23900 0.0 101859
8 марта, пн
пн800:00+6ссв33880 0.0 101886
03:00+3св34940 0.0 1018113
06:00+2св33934 0.0 1017112
09:00+6ссв35720 0.0 1019294
12:00+13с33531 0.0 1019738
15:00+14с57490 0.0 10181328
18:00+11ссв49610 0.0 1018630
21:00+5ссв35780 0.0 1021129
9 марта, вт
вт900:00+3св34870 0.0 1022114
03:00+3ссв22890 0.0 102268
06:00+2св22890 0.0 102247
09:00+7св126998 0.0 1023138
12:00+15зсз114771 0.0 1023863
15:00+13сз33530 0.0 1021670
18:00+10сз34740 0.0 1022175
21:00+7ссв228565 0.0 102462
10 марта, ср
ср1000:00+6в127583 0.0 102429
03:00+7в1268100 0.0 102432
06:00+5в127292 0.0 102429
09:00+10юв116293 0.0 1025133
12:00+15юз224781 0.0 1025645
15:00+15зюз235381 0.0 1023548
18:00+11ююз227976 0.0 102468
21:00+8юв2295100 0.0 102659